GFSGBSN_925_thetae_273.txt.gz
Theta_e
321 321 320 321 322 319 316 315 312 311 312 311 310 312 313 313 314 314 314 314 313 313 313 313 312 312 313 312 312 313 315 318 318 318 318 319 317 313 314 310 309 307 305 303 301 300 299
321 322 321 321 322 322 318 316 314 311 312 312 310 310 312 313 314 314 314 314 313 313 313 313 312 312 313 314 312 313 316 317 317 317 315 316 315 311 309 308 309 305 302 301 301 300 299
322 322 322 321 321 322 321 316 315 313 312 313 311 310 311 312 313 314 315 315 314 313 312 312 312 313 311 313 312 313 314 315 316 317 314 313 312 310 308 306 304 303 303 302 301 301 301
323 323 322 321 321 322 322 321 315 315 312 313 313 311 311 312 313 314 315 315 314 313 312 311 311 311 312 312 312 313 312 312 315 314 313 311 311 306 306 304 305 305 304 307 303 301 300
324 323 323 322 321 321 322 322 318 314 314 312 314 311 311 311 312 314 314 315 314 314 313 312 312 311 312 312 312 311 312 312 312 313 313 312 310 307 307 307 308 307 310 309 306 301 301
324 324 323 323 322 322 322 323 321 315 314 312 313 313 311 311 312 314 315 315 314 316 314 312 312 310 310 311 311 311 311 312 312 311 311 310 305 303 302 307 306 310 309 309 309 303 301
326 325 324 323 323 322 322 322 323 320 314 314 313 314 311 311 312 314 316 315 314 312 313 313 312 311 310 310 311 310 310 310 311 310 312 308 309 310 305 305 306 307 307 308 308 305 302
324 324 324 324 324 323 322 322 322 322 317 314 313 314 313 312 312 314 315 315 314 314 313 311 311 310 310 311 311 310 311 311 312 312 310 309 311 307 306 306 305 307 308 305 305 304 303
319 321 322 323 324 323 323 322 322 323 322 314 314 314 314 312 313 316 315 316 316 316 311 312 311 311 310 311 310 310 310 310 310 309 308 310 309 307 307 304 305 304 305 303 303 303 303
316 317 318 321 324 324 323 323 322 322 323 318 314 313 315 313 316 315 317 318 318 317 309 311 312 312 312 309 311 309 308 311 310 307 305 306 305 306 307 306 303 304 303 304 305 302 303
313 314 316 318 321 324 324 323 323 322 323 322 314 313 315 312 314 316 318 318 318 315 312 312 312 311 310 312 311 310 309 310 310 309 308 308 307 306 306 306 303 303 303 306 306 304 304
312 313 315 316 318 321 323 324 323 323 323 323 318 313 314 313 311 316 317 317 317 312 312 313 311 311 312 311 311 310 309 307 306 307 305 305 304 303 303 302 303 302 304 305 305 303 306
308 312 313 314 317 319 322 322 323 323 323 323 321 313 314 313 313 315 316 314 311 314 313 314 312 311 312 311 310 311 311 310 308 310 311 307 306 304 302 303 303 302 302 305 307 305 307
306 309 311 311 314 318 320 320 322 322 323 323 321 314 314 313 312 313 315 314 316 313 315 313 313 311 313 311 311 310 310 309 308 309 308 311 311 305 301 301 303 303 302 305 309 306 304
306 306 309 310 310 313 317 321 321 321 322 323 318 314 311 314 313 313 309 314 313 316 316 314 314 314 313 313 312 310 309 308 307 306 309 311 311 302 300 300 301 303 303 300 301 303 305
305 306 306 307 309 310 314 317 321 320 322 322 314 310 311 314 313 314 310 313 313 315 314 314 315 313 313 313 313 310 308 308 308 306 306 308 309 304 302 301 300 302 300 304 302 306 309
305 305 305 306 306 309 311 315 318 319 320 321 312 310 313 313 314 309 312 312 314 314 314 315 314 314 313 313 310 309 310 309 307 305 305 305 306 306 304 303 303 300 300 299 300 300 304
304 304 304 305 303 304 309 312 316 319 320 313 309 312 312 313 310 307 313 313 315 316 312 314 313 315 313 311 310 310 310 309 305 303 305 305 303 306 306 301 300 301 302 300 305 303 297
302 302 303 304 302 300 303 309 314 318 319 311 307 308 311 312 312 310 311 314 315 315 314 313 314 314 314 312 315 312 310 305 305 305 305 303 305 305 306 305 302 302 300 300 299 299 300
301 301 303 303 301 300 301 305 310 316 319 312 307 312 308 305 305 310 313 314 315 312 315 313 313 313 314 314 312 312 309 305 303 305 310 304 304 305 307 306 305 303 301 300 300 298 301
300 300 302 304 302 301 300 302 308 313 318 311 307 309 309 310 310 311 311 314 314 315 311 311 313 313 313 313 313 313 307 304 302 307 303 303 305 305 306 307 306 306 304 299 299 300 305
300 300 301 303 302 301 299 300 305 310 316 311 313 309 307 308 311 309 311 312 315 315 312 312 312 312 310 311 312 312 307 304 305 303 302 300 305 306 307 305 304 305 304 300 300 299 300
300 300 300 302 302 300 299 299 301 308 314 312 312 309 307 308 310 311 311 311 313 314 312 311 310 311 311 311 309 306 303 302 303 301 301 301 303 303 306 307 305 307 303 303 299 297 300
301 300 300 300 301 300 298 298 299 306 310 311 311 309 309 311 311 311 313 312 312 313 314 307 308 310 305 299 300 301 299 299 300 299 299 301 303 301 304 306 310 308 302 302 303 301 298
301 300 300 300 300 300 299 299 302 304 306 309 311 310 312 311 309 312 313 313 308 305 307 305 302 300 299 304 305 306 305 306 302 299 301 301 302 301 307 305 306 306 300 301 303 306 302
302 301 300 300 300 301 300 299 300 302 304 306 308 311 311 313 313 313 314 313 313 307 304 303 300 300 305 306 306 310 312 309 306 302 300 302 299 303 299 305 310 305 304 300 302 306 303
302 301 300 300 300 300 300 299 298 298 299 303 308 311 311 312 310 308 311 311 307 304 305 300 301 303 304 304 308 307 310 305 307 304 301 301 297 302 302 302 305 303 301 299 308 307 301
302 302 301 300 300 301 301 299 298 297 297 301 306 307 310 311 310 307 306 308 305 303 306 301 302 301 301 305 308 309 310 308 304 302 301 304 303 302 301 304 309 299 300 305 305 303 301
303 302 301 300 300 300 300 300 298 298 296 302 305 305 306 308 309 307 306 305 303 303 302 298 304 301 303 304 305 307 311 305 306 309 298 303 305 306 306 308 304 297 302 298 299 301 299

GFSGBSN_925_thetae_276.txt.gz
Theta_e
321 321 320 320 321 321 317 316 314 311 312 312 311 311 312 313 313 313 314 314 313 313 313 313 312 312 313 312 312 313 316 317 317 318 318 318 316 312 312 309 308 306 304 301 301 299 298
322 322 321 320 321 321 321 316 315 313 311 313 311 310 311 312 313 313 314 314 314 313 313 312 312 311 312 313 312 313 315 317 316 316 314 315 313 309 307 305 307 302 301 300 300 299 299
323 322 322 321 321 321 321 320 315 314 312 312 313 311 311 311 312 314 314 314 315 314 313 311 312 312 311 312 312 313 314 314 315 315 312 312 311 309 306 304 302 302 303 302 301 300 300
324 323 323 322 321 321 321 322 319 314 314 312 313 313 311 311 312 313 314 315 315 314 312 311 311 311 311 312 312 312 312 312 314 313 312 310 310 305 305 303 304 304 304 307 303 301 299
324 324 323 323 322 321 321 322 322 318 314 313 312 314 312 311 312 313 315 315 315 314 312 312 311 310 311 311 311 311 312 311 312 313 312 311 308 305 306 307 308 305 309 308 307 300 300
326 324 324 323 323 322 322 321 322 321 316 314 313 313 314 312 312 313 315 315 314 315 313 312 311 309 310 311 310 310 311 311 311 310 310 308 303 303 302 304 306 307 309 307 309 303 300
326 326 325 324 323 323 322 322 321 322 321 314 314 313 314 312 312 313 315 315 313 311 312 312 311 310 310 310 310 309 310 310 310 308 311 307 309 310 306 305 305 306 306 307 307 303 301
321 323 323 323 324 324 323 322 322 322 322 320 314 313 314 313 312 314 314 314 313 313 312 311 310 310 310 310 311 309 310 311 311 311 310 308 310 306 304 304 304 306 307 305 304 303 301
317 318 319 320 321 324 324 323 322 322 322 322 317 314 314 313 313 316 315 315 316 315 310 311 310 310 310 310 310 310 309 309 310 309 309 310 308 306 306 304 305 304 305 303 303 302 302
314 316 317 316 319 323 324 323 323 323 322 322 321 314 314 313 315 314 316 317 317 315 308 310 311 311 311 308 310 308 308 310 308 307 306 307 305 306 306 306 303 304 303 304 304 303 304
312 312 314 316 318 321 323 324 323 323 322 322 322 317 313 313 313 315 316 317 317 312 312 312 311 310 309 310 309 309 308 309 309 308 308 308 306 305 306 305 302 303 303 305 305 303 304
310 311 312 313 315 317 321 322 323 323 323 323 322 321 314 314 312 315 316 317 315 310 312 313 311 311 311 310 310 309 309 306 305 307 304 305 303 302 302 302 301 302 304 303 303 302 305
302 305 312 311 313 316 318 320 321 322 323 322 323 322 314 313 311 314 316 312 309 311 312 314 312 310 311 311 310 310 309 309 308 309 309 307 305 303 301 303 302 302 301 305 306 305 306
302 302 310 310 311 313 316 318 319 321 321 322 322 321 314 313 311 312 314 313 312 311 313 312 312 310 312 310 310 309 309 309 307 308 307 309 309 304 300 301 303 302 302 304 308 306 303
305 304 305 308 309 310 313 316 318 320 320 321 322 317 313 312 313 312 308 312 311 313 315 313 313 312 312 311 311 310 309 307 306 305 308 309 311 301 300 299 301 302 303 300 301 302 304
305 305 305 304 305 308 310 313 317 319 319 322 319 311 311 313 311 313 309 312 311 313 313 313 314 312 312 312 312 309 308 307 308 305 305 308 309 303 301 300 299 302 299 303 301 306 308
306 305 304 304 303 304 308 311 315 319 318 320 312 309 311 313 313 308 313 310 312 312 313 313 312 314 312 312 310 310 310 308 306 305 304 305 305 305 303 302 301 298 299 298 299 300 305
305 304 304 304 303 302 302 309 313 318 318 317 308 313 311 312 310 305 311 311 313 315 312 313 313 313 312 311 310 309 310 308 305 303 306 304 302 305 306 300 300 300 301 300 306 303 297
304 303 302 302 303 300 299 302 311 317 317 311 307 307 311 311 312 310 310 313 314 315 314 313 313 313 313 312 314 310 310 304 304 304 304 304 304 304 305 303 301 301 299 299 298 298 299
302 302 302 303 303 301 300 300 307 314 317 311 306 312 308 304 304 309 312 314 315 312 314 312 313 313 313 313 311 312 310 305 303 305 309 304 302 304 307 306 304 303 300 300 300 300 301
302 302 301 303 303 301 300 300 303 310 316 311 307 309 308 310 309 309 309 312 313 315 311 311 312 312 313 313 313 312 307 304 302 308 302 302 305 304 304 304 305 306 303 299 299 300 306
302 301 301 302 304 301 300 299 301 307 313 311 311 308 305 307 309 309 310 312 314 313 311 312 311 312 310 311 311 312 308 305 306 303 302 299 305 305 306 304 304 305 304 300 300 300 298
302 301 301 302 303 302 300 298 299 304 311 313 310 308 307 307 308 309 309 311 312 313 312 310 309 311 311 310 309 306 303 302 303 302 301 301 303 303 306 305 305 307 303 302 299 298 301
302 302 301 301 302 302 300 297 298 300 308 310 311 308 307 311 309 309 312 310 312 311 313 307 307 310 305 299 299 301 299 299 299 299 299 300 302 302 305 305 310 308 302 302 302 301 298
303 302 301 301 301 301 301 298 299 302 305 308 310 310 309 307 309 311 312 312 307 305 307 305 302 299 297 303 305 306 306 306 301 298 301 300 302 301 308 305 306 309 300 301 303 306 302
304 303 302 301 300 301 300 299 299 301 303 305 308 310 309 313 312 312 312 311 312 310 307 303 299 299 304 304 304 310 312 310 306 302 301 300 299 303 300 306 311 308 304 299 301 306 304
305 303 302 301 301 301 301 301 299 298 298 302 307 309 311 312 310 309 311 311 306 305 307 299 301 302 302 300 305 306 310 306 308 305 301 302 299 303 303 304 306 304 300 299 308 308 303
304 304 303 301 301 301 301 301 299 298 297 299 305 308 309 310 310 307 306 307 304 303 307 300 303 301 299 303 305 307 307 306 305 303 302 305 305 303 301 304 310 298 300 305 305 303 302
304 304 303 302 301 301 301 301 300 298 297 299 304 305 307 307 308 308 307 304 302 303 301 297 304 301 301 302 302 304 308 303 306 309 298 305 306 307 306 307 304 297 301 300 299 301 302

GFSGBSN_925_thetae_279.txt.gz
Theta_e
321 321 321 320 320 321 320 317 315 313 311 313 311 310 311 312 313 313 314 314 314 313 313 313 312 312 313 311 311 312 315 316 317 318 318 317 317 314 314 310 308 307 304 302 301 300 299
323 322 322 321 320 321 321 320 316 314 313 312 313 311 310 311 312 313 313 314 315 314 313 312 312 311 312 313 311 313 315 316 316 316 313 315 314 310 308 305 308 302 302 301 301 300 300
323 323 323 322 321 320 321 321 320 316 314 313 312 313 312 311 311 312 314 314 315 315 313 311 311 312 311 312 311 312 314 314 315 315 311 311 310 310 306 305 302 303 305 303 301 301 301
325 324 323 323 322 322 321 321 321 320 315 314 313 313 314 312 311 312 314 314 315 315 313 310 310 310 311 311 311 312 312 313 313 312 311 309 309 306 306 303 304 306 306 310 304 302 299
326 324 324 323 323 322 322 321 321 321 319 315 314 313 313 314 312 312 313 315 315 314 312 311 311 310 310 311 311 311 312 311 312 311 310 310 307 306 306 309 309 308 312 310 308 302 301
325 326 325 324 324 323 322 322 321 321 321 318 314 314 313 314 313 313 314 315 314 314 313 311 310 310 310 310 310 310 310 311 310 310 310 309 305 307 307 308 310 307 310 307 309 304 301
322 325 325 325 324 324 323 323 322 321 321 321 317 314 314 314 313 313 315 314 313 311 312 312 311 310 309 309 309 309 310 310 310 309 311 307 312 312 307 306 305 306 306 307 306 303 303
318 319 320 321 321 321 323 324 323 322 321 321 321 315 314 314 313 314 315 312 312 312 313 310 309 309 309 310 310 308 309 310 311 311 309 310 311 306 303 304 304 306 307 306 304 303 303
314 315 316 317 317 319 320 323 323 322 322 321 321 319 314 314 314 315 315 315 316 313 310 310 309 310 309 310 309 309 308 308 309 309 309 311 308 305 306 304 305 304 305 303 303 302 302
312 313 314 314 316 318 321 322 324 323 323 322 322 321 315 314 314 314 316 316 316 312 308 310 311 310 310 308 309 307 308 308 307 308 306 307 304 306 305 306 303 304 302 303 304 306 309
311 311 312 312 313 316 319 323 322 323 323 323 322 322 319 314 311 314 315 316 316 310 313 311 311 310 309 310 308 308 307 309 309 307 308 308 305 305 306 305 302 303 303 304 305 305 306
306 306 310 311 311 314 316 318 321 321 322 323 322 322 322 314 314 313 314 316 313 310 312 312 310 310 311 309 309 308 308 305 305 306 304 304 302 302 302 301 301 302 304 304 304 305 309
299 299 308 310 310 312 315 316 318 319 319 322 322 322 322 314 311 314 314 311 310 311 311 313 311 310 310 310 310 309 309 309 309 309 308 306 305 302 301 303 302 302 304 311 311 311 311
301 301 301 309 309 310 313 315 316 318 319 320 321 321 319 313 312 312 313 310 312 311 311 311 311 310 311 309 309 309 309 309 306 307 307 310 309 304 300 301 303 302 304 310 309 309 308
303 303 303 306 308 306 309 313 315 317 318 320 321 321 314 311 313 312 308 311 311 310 313 312 311 311 311 311 310 309 308 308 306 306 309 309 310 300 299 299 300 302 305 300 304 303 307
303 304 304 304 303 303 303 309 314 317 318 319 320 314 311 312 312 312 309 312 310 310 312 312 314 312 312 311 311 309 309 307 308 304 305 307 309 302 300 300 298 301 299 306 305 311 310
306 305 304 303 303 302 302 302 311 315 318 318 312 310 311 312 313 308 313 311 311 310 312 312 312 312 311 312 310 309 310 307 306 304 304 304 306 304 303 302 303 300 301 300 302 303 311
306 306 305 303 303 301 300 300 308 314 316 318 307 316 310 312 310 304 310 310 312 314 311 312 311 312 311 310 310 309 310 307 304 303 306 304 303 305 305 300 299 299 300 301 313 306 300
305 305 305 303 302 300 298 299 302 313 315 312 307 307 310 310 312 309 309 312 313 314 313 313 313 312 311 311 313 309 309 304 304 303 304 304 305 307 305 303 301 301 300 299 300 301 303
305 305 304 303 303 301 300 298 300 309 315 312 305 313 307 304 304 308 311 312 314 311 313 311 312 312 312 312 309 311 309 305 303 305 308 304 302 307 310 308 304 303 300 300 303 307 307
304 304 303 302 303 303 301 299 299 305 312 311 307 309 307 310 308 307 309 311 313 314 311 310 311 311 312 312 312 312 307 304 302 309 302 303 306 303 303 303 304 305 303 300 302 303 311
304 303 303 302 303 303 301 300 299 301 309 311 309 307 304 306 307 308 310 311 312 313 312 312 312 311 310 312 312 312 307 305 307 303 303 300 307 304 307 304 304 306 305 301 301 300 300
304 303 303 302 302 303 302 300 298 299 308 312 309 307 307 307 306 308 309 310 311 312 311 309 309 310 310 309 308 306 303 301 304 304 302 302 304 305 307 304 305 308 305 304 301 299 303
304 304 303 302 302 303 302 299 297 298 304 309 311 307 309 310 308 309 311 309 310 310 312 306 307 309 305 298 299 300 299 298 299 299 299 301 303 304 308 306 311 310 302 302 304 303 300
304 304 303 303 302 303 303 301 298 299 301 306 310 310 309 308 308 310 311 311 305 305 307 307 302 300 297 303 305 306 306 306 300 300 301 300 303 305 311 307 308 311 302 302 304 308 303
305 304 304 303 302 302 302 302 300 299 301 304 307 310 310 311 312 310 310 309 310 310 308 303 299 298 302 303 305 310 312 310 306 302 301 300 301 307 303 309 312 310 303 299 301 309 304
305 304 304 303 302 302 301 301 301 299 300 301 305 308 311 312 309 309 312 311 308 307 309 300 301 301 301 300 305 308 311 306 308 306 303 303 303 306 305 308 307 306 300 299 309 313 302
306 305 304 304 303 302 301 301 301 300 298 297 302 307 310 311 309 306 305 304 302 304 310 302 303 301 300 303 305 306 307 306 305 303 303 306 307 307 303 306 311 299 300 307 307 302 302
306 305 305 304 303 302 301 302 301 300 298 297 302 306 308 308 307 308 307 305 304 304 303 297 305 302 301 303 301 303 308 302 306 310 298 306 308 309 309 309 305 298 303 301 299 301 302

GFSGBSN_925_thetae_285.txt.gz
Theta_e
324 323 322 322 320 319 320 320 319 316 314 313 312 313 313 312 311 312 313 313 314 314 314 313 312 312 316 319 317 315 315 316 318 321 324 325 324 324 325 320 318 319 314 312 311 311 312
327 324 323 323 322 321 320 320 320 319 316 314 314 313 313 313 313 312 313 314 314 314 314 313 312 312 317 319 313 314 315 316 317 319 321 323 323 322 321 317 318 315 314 312 311 311 310
325 326 324 323 323 322 322 320 320 320 320 317 315 314 313 313 314 313 313 314 314 315 315 313 311 313 316 315 313 314 315 315 317 319 319 320 319 321 318 315 313 314 314 313 312 311 311
322 325 324 324 323 323 323 322 321 320 320 320 318 316 314 314 314 314 313 314 315 315 315 312 311 312 316 312 313 313 315 315 315 316 316 315 316 316 317 313 314 316 317 320 314 311 308
321 324 325 324 324 323 323 323 322 322 320 320 320 318 315 314 314 314 313 315 315 315 313 311 313 314 316 312 313 312 313 316 315 314 313 313 316 316 315 318 319 318 319 318 317 312 311
323 326 325 325 324 324 324 323 324 323 322 321 320 320 317 315 314 314 314 315 315 314 314 313 312 315 313 315 312 312 313 315 316 316 317 317 318 320 319 319 320 317 316 315 316 314 311
321 323 323 325 324 323 322 321 322 324 323 323 321 320 318 315 314 314 317 317 319 319 316 318 316 315 314 312 311 313 312 314 315 316 319 318 319 321 319 316 314 314 314 315 315 312 311
315 316 316 317 318 317 318 318 319 322 323 323 323 320 319 316 314 315 318 320 318 317 321 315 314 314 313 313 314 313 312 315 316 318 318 319 320 315 313 312 313 314 314 316 313 310 309
313 313 314 314 314 314 315 316 318 322 323 323 323 322 319 315 315 318 319 318 317 317 319 316 315 315 314 313 315 314 313 315 316 318 318 318 316 311 312 314 314 315 314 313 312 311 311
312 312 312 313 313 314 316 320 322 322 321 323 323 323 321 315 317 317 319 316 317 317 319 317 315 315 313 314 315 311 312 315 315 316 316 316 312 312 313 314 312 315 310 310 311 313 318
310 310 310 311 311 313 315 318 321 321 320 321 323 323 322 318 316 319 317 316 318 317 322 315 315 313 314 315 314 313 311 314 316 315 315 315 312 312 314 313 310 313 309 310 312 314 315
308 306 304 308 310 310 312 315 317 318 319 319 323 323 322 323 318 315 315 316 318 321 321 317 315 315 315 315 314 313 314 313 313 314 314 313 308 309 310 308 307 309 311 313 314 316 321
299 298 298 306 310 307 310 313 315 316 317 317 320 322 322 321 318 315 315 319 321 320 316 318 317 315 316 317 315 315 315 315 316 317 317 313 312 307 307 310 309 310 314 322 325 324 322
299 299 300 300 308 308 305 308 314 314 315 317 319 321 323 321 316 314 317 320 321 319 318 317 316 316 318 316 316 315 316 316 315 315 316 317 318 311 307 309 310 312 313 318 321 322 319
302 301 301 301 302 305 304 301 310 314 316 317 320 323 321 316 313 314 320 322 320 320 318 318 316 318 318 316 316 316 317 317 316 315 316 316 316 306 305 305 306 312 315 311 315 315 316
302 302 302 302 303 302 301 300 301 312 316 317 320 323 322 313 313 315 321 321 320 317 317 318 320 319 320 319 317 317 319 316 315 312 313 315 316 309 306 305 306 308 308 315 316 326 322
307 301 302 303 303 301 300 300 300 309 315 316 318 324 314 313 314 318 320 320 320 316 317 318 320 320 320 319 318 319 318 314 313 312 312 314 314 311 308 310 313 309 311 310 312 315 320
308 307 306 304 303 301 299 298 299 307 314 316 321 323 313 313 319 319 320 319 315 318 316 318 317 319 319 319 319 319 319 317 312 312 314 313 315 315 314 307 306 307 311 312 317 323 315
308 308 307 307 304 301 299 297 298 305 313 317 322 322 313 314 324 322 319 318 317 318 318 318 318 318 318 319 320 320 318 311 310 312 314 313 315 316 314 310 307 309 310 309 312 313 319
309 308 308 307 306 303 298 297 297 303 313 315 320 321 318 316 320 321 321 320 318 317 318 318 318 318 318 319 319 320 318 312 310 310 309 309 316 317 319 318 315 313 311 309 311 317 320
309 307 308 307 306 304 299 297 296 302 313 314 319 321 318 321 320 319 320 319 320 319 317 317 317 318 318 318 319 318 318 313 309 312 310 312 317 318 316 315 312 312 313 310 311 313 316
309 308 306 307 307 305 300 298 297 300 312 316 320 319 316 319 316 320 319 319 320 319 319 317 317 318 317 318 319 318 318 318 318 312 312 312 316 314 316 315 313 312 312 312 311 311 312
310 309 306 306 307 305 302 298 298 298 310 316 318 313 316 318 317 318 320 319 319 318 318 317 317 318 318 318 317 317 316 316 317 316 314 315 316 316 318 314 313 316 315 314 313 312 312
311 310 307 306 306 305 303 300 300 298 308 313 317 317 318 321 319 318 316 317 318 318 318 317 315 317 314 311 311 312 312 312 313 313 315 315 316 318 320 318 319 318 311 311 315 314 313
312 310 308 306 306 305 303 304 300 299 299 310 313 315 318 321 319 317 317 316 316 316 317 317 311 309 310 311 316 316 316 314 313 311 310 311 316 327 321 320 319 318 314 310 312 315 312
313 311 309 306 305 305 303 303 301 300 297 304 311 312 316 317 319 316 317 317 317 316 316 313 305 306 309 315 319 323 322 319 318 310 307 309 311 320 319 326 320 316 309 308 309 317 312
314 311 309 307 306 305 304 303 304 301 298 302 305 310 315 318 315 315 316 317 316 317 317 312 307 307 308 319 323 321 321 318 320 317 312 311 314 320 319 324 319 317 308 307 315 318 311
315 313 310 308 306 305 304 303 303 302 300 301 302 308 312 316 315 313 314 315 316 316 319 311 310 309 310 320 321 320 320 319 318 317 315 316 320 318 319 325 319 310 307 313 315 312 310
316 314 311 308 306 305 304 303 303 303 302 301 301 304 308 311 314 311 312 310 308 308 314 312 316 314 314 316 318 318 319 318 319 319 315 317 318 322 320 319 315 310 312 311 308 309 311

GFSGBSN_925_thetae_288.txt.gz
Theta_e
325 324 323 322 322 320 320 320 320 318 316 314 314 313 313 313 313 312 313 313 314 315 315 314 313 312 314 320 316 315 315 317 318 320 323 325 325 325 326 321 319 319 315 313 312 313 313
325 327 324 323 323 322 321 320 320 320 318 316 315 314 314 314 314 313 313 313 314 315 315 314 313 312 318 319 314 315 315 317 318 319 320 322 323 322 320 318 318 316 314 313 313 312 311
323 325 326 324 323 323 322 322 321 320 320 319 317 316 315 314 314 314 314 314 315 315 315 314 312 312 316 314 314 316 316 317 318 320 320 320 320 321 319 316 315 314 314 313 312 312 312
320 322 325 324 324 323 323 323 322 322 320 320 320 318 316 315 314 314 314 314 315 316 316 313 311 313 316 313 314 314 316 316 317 318 317 317 317 317 318 314 315 315 316 320 313 312 309
320 321 325 325 324 324 324 324 324 323 322 321 320 319 318 316 315 314 314 315 315 315 313 312 313 315 315 312 313 313 314 316 315 315 314 315 317 317 316 318 318 317 319 320 315 313 311
322 324 325 325 325 323 324 323 322 323 323 322 322 320 319 316 315 314 314 315 317 314 313 316 314 315 313 315 313 313 314 316 316 316 317 317 318 319 318 319 320 316 315 316 317 313 311
321 322 323 323 324 322 321 321 321 321 322 323 323 321 319 317 315 314 317 317 318 319 317 318 317 315 314 312 312 313 313 314 315 317 318 320 318 321 316 315 314 314 314 315 315 313 311
316 315 316 316 317 317 317 317 318 318 320 323 323 323 319 317 314 317 318 322 319 319 321 317 315 314 314 314 314 314 312 315 317 318 319 318 319 314 314 314 314 314 314 315 313 312 310
314 313 313 314 314 314 314 315 316 318 321 323 323 323 321 316 316 319 319 319 318 319 320 317 316 316 314 313 316 314 313 315 316 317 318 318 315 313 314 315 315 315 315 312 311 312 310
312 312 311 311 312 312 313 316 320 321 321 321 323 323 322 316 318 318 320 317 318 319 320 317 315 315 314 315 315 312 313 315 315 316 317 315 312 313 314 315 313 315 310 311 312 313 316
311 310 310 310 310 309 313 315 318 319 319 319 322 323 323 321 317 320 318 317 318 319 325 317 315 313 315 315 314 313 312 314 316 317 315 315 313 313 314 312 310 313 310 311 312 312 313
310 309 306 303 307 308 308 312 315 317 318 318 319 322 323 324 320 317 317 317 319 323 323 317 315 315 315 315 315 314 314 314 313 315 315 312 309 310 310 309 308 309 310 312 314 314 318
304 301 299 299 306 305 305 308 313 314 315 316 317 320 322 321 321 317 316 319 323 321 318 317 317 316 316 317 316 315 315 315 316 317 317 314 312 307 307 310 309 310 312 321 325 320 323
300 299 299 299 299 305 305 304 305 314 314 314 317 319 322 322 321 316 318 321 324 321 319 318 318 317 318 318 317 316 316 316 316 316 316 318 317 311 307 308 309 312 312 317 320 320 317
302 301 300 299 299 300 302 302 300 310 314 316 318 321 323 321 316 315 320 322 321 321 319 318 317 318 319 318 316 316 316 317 316 315 316 317 315 306 306 305 306 312 313 310 313 316 315
305 302 301 300 300 300 301 300 299 305 313 317 320 324 324 318 314 316 321 321 321 319 318 319 320 320 321 319 316 318 319 316 316 313 313 315 315 309 305 305 306 306 308 313 314 325 324
309 306 302 301 300 301 300 299 298 303 313 316 318 324 317 318 315 317 320 320 320 317 318 319 321 320 320 320 319 319 319 314 314 312 312 314 314 311 308 308 311 307 309 308 311 313 319
310 309 307 304 301 301 299 298 298 301 312 315 321 323 315 314 318 318 318 319 314 319 317 318 318 320 320 320 320 320 320 317 313 312 314 313 315 315 312 307 306 307 309 311 318 320 312
310 310 309 308 304 301 300 298 297 300 312 317 322 322 314 315 324 322 320 319 319 319 319 318 319 319 319 319 320 321 319 312 311 313 315 312 313 316 313 310 308 308 309 309 312 312 317
311 310 309 308 307 302 300 298 296 298 312 315 321 323 318 315 318 321 322 321 320 318 318 318 318 318 318 318 318 320 319 313 311 311 309 311 315 316 319 318 314 311 311 308 310 316 317
312 310 309 308 307 306 301 298 296 297 310 314 320 322 319 322 320 320 320 321 322 321 317 317 318 318 318 319 318 319 319 313 310 313 310 312 316 316 316 316 313 313 313 310 307 309 312
313 311 310 308 307 307 304 299 296 297 310 316 322 320 318 321 318 320 319 320 321 320 319 318 318 319 317 318 318 319 319 317 316 312 312 311 315 316 315 315 315 314 312 311 309 309 309
314 312 311 309 308 307 306 301 296 297 310 316 318 316 318 321 318 320 321 319 319 318 319 318 319 318 318 318 315 314 314 315 315 315 313 313 314 316 317 316 314 314 312 312 312 310 310
315 313 312 310 308 307 306 304 297 297 308 314 318 317 317 322 321 318 316 318 319 319 319 318 317 316 313 311 312 314 313 313 314 314 315 315 315 317 319 317 319 316 312 312 313 313 310
316 314 313 311 309 307 307 306 300 298 299 308 315 317 320 322 319 318 317 317 316 316 317 317 313 308 310 312 316 316 315 314 313 313 312 312 316 320 321 318 317 317 315 310 311 314 313
317 315 314 311 310 308 307 306 303 298 298 302 311 314 317 319 320 317 317 316 317 316 316 315 306 307 309 315 319 321 322 319 318 311 308 309 310 316 318 321 321 316 309 309 309 312 310
317 317 315 312 311 309 307 306 304 300 300 299 305 311 314 319 316 316 316 317 316 316 317 314 306 306 308 319 322 322 320 318 319 315 310 309 310 313 316 319 320 316 307 307 313 314 309
312 316 316 313 311 309 308 306 305 303 301 299 302 307 313 317 315 314 314 316 316 316 318 309 309 309 311 318 320 319 320 318 318 317 312 313 314 313 313 317 319 308 306 310 312 310 309
313 316 316 313 311 310 308 306 305 304 303 299 301 303 310 311 313 312 312 313 311 307 314 309 316 310 312 315 317 318 320 318 319 319 315 315 318 318 316 316 314 307 312 308 307 308 310